Location: *
(34.8620°S, 39.3380°E)
Time: 08:27:52
(UTC+00:00)

SAOCOM 1-B - Pass Details

Date: 03 June 2022
Orbit: 621 x 623 km, 97.9° (Epoch: 06 July)

Event Time Altitude Azimuth Distance (km) Brightness Sun altitude
Rises 15:17:44 0° 356° (N) 2,889 ? -12.0°
Reaches altitude 10° 15:20:01 10° 348° (NNW) 1,992 ? -12.4°
Maximum altitude 15:24:05 39° 278° (W) 942 ? -13.2°
Drops below altitude 10° 15:28:13 10° 209° (SSW) 2,020 ? -14.0°
Sets 15:30:33 0° 201° (SSW) 2,935 ? -14.4°
